CT2IRK-11 Weather Reports


time (UTC)temp
C
wind
direction
speed
KPH
gust
KPH
rain 1hr
cm
rain 24hr
cm
rain mn
cm
humidity
%
barometer
mb
20260507112005 24 248 0.0 16.1 0.00 0.03 0.00 38 1003.6
20260507111005 25 233 4.8 14.5 0.00 0.03 0.00 37 1003.6
20260507110005 22 323 6.4 11.3 0.00 0.03 0.00 43 1003.8
20260507105005 22 275 4.8 14.5 0.00 0.03 0.00 45 1003.7
20260507104005 23 225 6.4 9.7 0.00 0.03 0.00 41 1003.7
20260507103005 23 280 0.0 1.6 0.00 0.03 0.00 43 1003.7
20260507102007 21 63 0.0 0.0 0.00 0.03 0.00 50 1003.7
20260507101005 22 338 0.0 11.3 0.00 0.03 0.00 47 1003.7
20260507100005 24 292 0.0 0.0 0.00 0.03 0.00 43 1003.8
20260507095005 24 55 0.0 0.0 0.00 0.03 0.00 44 1003.9
20260507094006 25 270 0.0 0.0 0.00 0.03 0.00 41 1003.9
20260507093005 21 104 0.0 8.0 0.00 0.03 0.00 50 1003.8
20260507092005 21 8 1.6 9.7 0.00 0.03 0.00 51 1003.9
20260507091005 24 256 0.0 0.0 0.00 0.03 0.00 44 1003.8
20260507090005 22 111 0.0 0.0 0.00 0.03 0.00 46 1003.7
20260507085005 22 257 0.0 0.0 0.00 0.03 0.00 49 1003.7
20260507083005 22 112 0.0 0.0 0.00 0.03 0.00 53 1003.6
20260507082004 20 108 0.0 0.0 0.00 0.03 0.00 60 1003.7
20260507081005 19 127 0.0 0.0 0.00 0.03 0.00 63 1003.7
20260507080005 17 173 0.0 3.2 0.00 0.03 0.00 68 1003.8
20260507074005 15 202 8.0 11.3 0.00 0.03 0.00 78 1004.0
20260507072005 14 215 0.0 8.0 0.00 0.03 0.00 79 1003.6
20260507071004 13 188 1.6 3.2 0.00 0.03 0.00 84 1003.4
20260507065005 12 211 0.0 1.6 0.00 0.03 0.00 84 1003.3
20260507064005 12 195 0.0 4.8 0.00 0.03 0.00 87 1003.2
20260507063005 11 190 1.6 4.8 0.00 0.03 0.00 90 1003.2
20260507062005 10 187 0.0 1.6 0.00 0.03 0.00 92 1002.9
20260507060004 9 190 0.0 0.0 0.00 0.03 0.00 98 1002.7
20260507055005 10 192 0.0 0.0 0.00 0.03 0.00 99 1002.6
20260507054004 10 180 0.0 0.0 0.00 0.03 0.00 96 1002.5
20260507053005 10 112 0.0 0.0 0.00 0.03 0.00 96 1002.7
20260507052005 10 158 0.0 0.0 0.00 0.03 0.00 97 1002.7
20260507051006 10 112 0.0 0.0 0.00 0.03 0.00 98 1002.7
20260507050006 10 113 0.0 0.0 0.00 0.03 0.00 98 1002.9
20260507045006 10 99 0.0 0.0 0.00 0.03 0.00 96 1002.9
20260507044006 10 137 0.0 0.0 0.00 0.03 0.00 95 1003.0
20260507042006 10 202 0.0 0.0 0.00 0.03 0.00 95 1003.2
20260507041005 10 119 0.0 0.0 0.00 0.03 0.00 95 1003.3
20260507035005 10 123 0.0 0.0 0.00 0.03 0.00 94 1003.4
20260507034005 11 124 0.0 0.0 0.00 0.03 0.00 93 1003.4
20260507033006 11 170 0.0 0.0 0.00 0.03 0.00 93 1003.4
20260507032005 11 315 0.0 0.0 0.00 0.03 0.00 93 1003.4
20260507031006 11 123 0.0 0.0 0.00 0.03 0.00 92 1003.4
20260507025005 11 178 0.0 0.0 0.00 0.03 0.00 92 1003.5
20260507024006 11 180 0.0 0.0 0.00 0.03 0.00 92 1003.5
20260507023007 11 202 0.0 0.0 0.00 0.03 0.00 92 1003.6
20260507022006 12 202 0.0 0.0 0.00 0.03 0.00 93 1003.6
20260507021005 12 45 0.0 0.0 0.00 0.03 0.00 93 1003.6
20260507020005 12 12 0.0 0.0 0.00 0.03 0.00 90 1003.7
20260507015006 12 304 0.0 1.6 0.00 0.03 0.00 90 1003.8
20260507013005 13 56 1.6 9.7 0.00 0.03 0.00 88 1003.8
20260507012006 13 56 1.6 3.2 0.00 0.03 0.00 88 1003.9
20260507011005 13 66 0.0 1.6 0.00 0.03 0.00 88 1003.8
20260507005005 13 57 0.0 1.6 0.00 0.03 0.00 88 1004.2
20260507004005 13 35 0.0 0.0 0.00 0.03 0.00 88 1004.2
20260507003006 13 22 0.0 0.0 0.00 0.03 0.00 88 1004.2
20260507002005 13 56 0.0 0.0 0.00 0.03 0.00 87 1004.4
20260507001006 13 352 0.0 1.6 0.00 0.03 0.00 86 1004.4
20260507000005 13 28 0.0 9.7 0.00 0.03 0.00 85 1004.3
20260506235005 13 37 3.2 11.3 0.00 0.03 0.00 85 1004.3
20260506234005 13 31 6.4 12.9 0.00 0.03 0.00 84 1004.3
20260506233005 13 22 4.8 19.3 0.00 0.03 0.00 84 1004.3
20260506232005 13 22 11.3 14.5 0.00 0.03 0.00 84 1004.3
20260506231005 13 52 1.6 12.9 0.00 0.03 0.00 84 1004.4
20260506230005 13 44 3.2 11.3 0.00 0.03 0.00 84 1004.5
20260506225005 14 22 8.0 14.5 0.00 0.03 0.03 83 1004.5
20260506224006 14 354 8.0 14.5 0.00 0.03 0.03 82 1004.5
20260506223006 14 22 12.9 24.1 0.00 0.03 0.03 81 1004.6
20260506222005 14 60 11.3 16.1 0.00 0.03 0.03 81 1004.7
20260506221005 14 336 3.2 19.3 0.00 0.03 0.03 81 1004.7
20260506220005 14 2 8.0 16.1 0.00 0.03 0.03 80 1004.9
20260506215006 14 6 9.7 16.1 0.00 0.03 0.03 80 1004.8
20260506214006 14 30 11.3 16.1 0.00 0.03 0.03 79 1004.8
20260506212005 15 8 11.3 16.1 0.00 0.03 0.03 79 1004.7
20260506211006 15 21 8.0 14.5 0.00 0.03 0.03 78 1004.7
20260506210005 15 25 11.3 22.5 0.00 0.03 0.03 77 1004.6
20260506205005 15 351 9.7 14.5 0.03 0.03 0.03 76 1004.5
20260506203005 15 359 0.0 9.7 0.03 0.03 0.03 73 1004.5
20260506202005 15 81 9.7 12.9 0.03 0.03 0.03 72 1004.3
20260506201006 16 359 9.7 19.3 0.03 0.03 0.03 69 1004.3
20260506200005 16 6 16.1 22.5 0.03 0.03 0.03 66 1004.0
20260506195005 16 5 17.7 22.5 0.00 0.00 0.00 65 1004.1
20260506194006 16 335 14.5 20.9 0.00 0.00 0.00 66 1004.1
20260506193005 16 349 14.5 25.7 0.00 0.00 0.00 64 1004.1
20260506191005 17 28 14.5 19.3 0.00 0.00 0.00 59 1003.7
20260506190006 18 100 9.7 16.1 0.00 0.00 0.00 59 1003.5
20260506185005 18 45 9.7 14.5 0.00 0.00 0.00 56 1003.5
20260506183006 19 292 12.9 20.9 0.00 0.00 0.00 52 1003.5
20260506182005 19 303 17.7 24.1 0.00 0.00 0.00 50 1003.4
20260506180006 20 9 17.7 22.5 0.00 0.00 0.00 48 1003.6
20260506175005 20 298 16.1 25.7 0.00 0.00 0.00 46 1003.7
20260506174006 20 324 16.1 24.1 0.00 0.00 0.00 45 1003.7
20260506173005 21 352 16.1 22.5 0.00 0.00 0.00 46 1003.7
20260506172005 21 302 16.1 22.5 0.00 0.00 0.00 45 1003.8
20260506171005 21 10 14.5 22.5 0.00 0.00 0.00 44 1003.6
20260506170005 21 30 19.3 22.5 0.00 0.00 0.00 44 1003.6
20260506165005 22 315 14.5 25.7 0.00 0.00 0.00 43 1003.6
20260506164005 22 353 19.3 22.5 0.00 0.00 0.00 45 1003.6
20260506163005 22 14 11.3 24.1 0.00 0.00 0.00 43 1003.7
20260506162006 23 270 12.9 25.7 0.00 0.00 0.00 43 1003.8
20260506161008 22 327 16.1 25.7 0.00 0.00 0.00 44 1003.7
20260506160005 22 2 16.1 29.0 0.00 0.00 0.00 45 1003.7
20260506155005 23 28 16.1 25.7 0.00 0.00 0.00 43 1003.6
20260506153005 22 304 14.5 27.4 0.00 0.00 0.00 44 1003.8
20260506152005 23 302 12.9 20.9 0.00 0.00 0.00 41 1004.1
20260506151005 23 307 9.7 25.7 0.00 0.00 0.00 41 1004.1
20260506150005 23 13 14.5 19.3 0.00 0.00 0.00 42 1004.3
20260506145008 23 36 11.3 16.1 0.00 0.00 0.00 39 1004.3
20260506144005 23 294 17.7 22.5 0.00 0.00 0.00 40 1004.3
20260506143005 23 321 14.5 20.9 0.00 0.00 0.00 40 1004.5
20260506142006 22 300 11.3 25.7 0.00 0.00 0.00 41 1004.7
20260506141005 23 283 12.9 20.9 0.00 0.00 0.00 39 1004.9
20260506140005 22 321 12.9 19.3 0.00 0.00 0.00 40 1004.9
20260506135005 23 347 8.0 16.1 0.00 0.00 0.00 41 1005.0
20260506134005 25 338 8.0 11.3 0.00 0.00 0.00 33 1005.1
20260506132005 24 344 9.7 16.1 0.00 0.00 0.00 35 1005.5
20260506131005 23 357 14.5 22.5 0.00 0.00 0.00 37 1005.6
20260506130005 22 34 8.0 14.5 0.00 0.00 0.00 41 1005.6
20260506124005 23 304 11.3 16.1 0.00 0.00 0.00 37 1005.8
20260506123005 23 22 6.4 16.1 0.00 0.00 0.00 38 1006.0
20260506121005 21 41 11.3 20.9 0.00 0.00 0.00 44 1006.1
20260506114005 21 349 11.3 20.9 0.00 0.00 0.00 45 1006.6
20260506113004 22 357 8.0 16.1 0.00 0.00 0.00 42 1006.6